UAL257 KDEN-KSFO

Flight info

Callsign UAL257
Flight time N/A
Altitude 40000
Route COORZ6 VOAXA Q136 OAL INYOE DYAMD5
Aircraft B772/H-SDE2E3FGHIJ5LORVWXY/LB1D1

Departure

Time N/A
Airport Denver International Airport (KDEN)

Arrival

Time 2026-05-03 21:52
Airport San Francisco International Airport (KSFO)
Time Latitude Longitude Altitude Speed Heading
2026-05-03 20:15 39.81248 -106.26226 26983 ft 498 kts 259°
2026-05-03 20:15 39.80603 -106.30649 27455 ft 501 kts 259°
2026-05-03 20:15 39.79951 -106.35121 27953 ft 503 kts 259°
2026-05-03 20:15 39.79300 -106.39594 28440 ft 504 kts 259°
2026-05-03 20:16 39.78655 -106.44031 28923 ft 506 kts 259°
2026-05-03 20:16 39.78004 -106.48524 29413 ft 507 kts 259°
2026-05-03 20:16 39.77352 -106.53025 29948 ft 506 kts 259°
2026-05-03 20:16 39.76716 -106.57531 30484 ft 506 kts 261°
2026-05-03 20:17 39.76240 -106.62063 31018 ft 505 kts 263°
2026-05-03 20:17 39.75847 -106.66597 31551 ft 505 kts 264°
2026-05-03 20:17 39.75486 -106.71130 32090 ft 504 kts 264°
2026-05-03 20:17 39.75138 -106.75665 32623 ft 503 kts 264°
2026-05-03 20:18 39.74796 -106.80190 33170 ft 502 kts 264°
2026-05-03 20:18 39.74463 -106.84655 33683 ft 501 kts 264°
2026-05-03 20:18 39.74131 -106.89153 34230 ft 500 kts 264°
2026-05-03 20:18 39.73801 -106.93644 34759 ft 498 kts 264°
2026-05-03 20:19 39.73473 -106.98122 35303 ft 497 kts 264°
2026-05-03 20:19 39.73148 -107.02575 35834 ft 495 kts 264°
2026-05-03 20:19 39.72854 -107.06535 36296 ft 494 kts 264°
2026-05-03 20:19 39.72441 -107.10979 36800 ft 493 kts 262°
2026-05-03 20:20 39.71979 -107.15383 37305 ft 491 kts 262°
2026-05-03 20:20 39.71498 -107.19771 37822 ft 489 kts 262°
2026-05-03 20:20 39.71017 -107.24090 38315 ft 487 kts 262°
2026-05-03 20:20 39.70526 -107.28474 38834 ft 484 kts 262°
2026-05-03 20:21 39.70049 -107.32731 39332 ft 480 kts 262°
2026-05-03 20:21 39.69567 -107.37024 39698 ft 481 kts 262°
2026-05-03 20:21 39.69084 -107.41342 39864 ft 486 kts 262°
2026-05-03 20:22 39.68104 -107.50124 39987 ft 499 kts 262°
2026-05-03 20:22 39.67100 -107.59150 40004 ft 509 kts 262°
2026-05-03 20:23 39.66096 -107.68232 39988 ft 505 kts 262°
2026-05-03 20:23 39.65109 -107.77195 39987 ft 499 kts 262°
2026-05-03 20:24 39.64139 -107.86046 39996 ft 500 kts 262°
2026-05-03 20:24 39.63162 -107.95001 39997 ft 504 kts 262°
2026-05-03 20:25 39.62179 -108.04053 40003 ft 506 kts 262°
2026-05-03 20:25 39.61207 -108.13052 39997 ft 502 kts 262°
2026-05-03 20:26 39.60243 -108.22010 39995 ft 502 kts 262°
2026-05-03 20:26 39.59278 -108.31033 40003 ft 506 kts 262°
2026-05-03 20:27 39.58318 -108.40043 39997 ft 503 kts 262°
2026-05-03 20:27 39.57256 -108.48933 39994 ft 502 kts 260°
2026-05-03 20:28 39.55987 -108.57904 40008 ft 513 kts 259°
2026-05-03 20:28 39.54556 -108.67098 40014 ft 526 kts 258°
2026-05-03 20:29 39.52965 -108.76426 40003 ft 532 kts 257°
2026-05-03 20:29 39.51356 -108.85743 39994 ft 533 kts 257°
2026-05-03 20:30 39.49736 -108.95091 39992 ft 532 kts 257°
2026-05-03 20:30 39.48118 -109.04459 39992 ft 533 kts 257°
2026-05-03 20:31 39.46498 -109.13864 39997 ft 535 kts 257°
2026-05-03 20:31 39.44894 -109.23208 40002 ft 536 kts 257°
2026-05-03 20:32 39.43281 -109.32690 39998 ft 535 kts 258°
2026-05-03 20:32 39.41862 -109.42070 40003 ft 535 kts 259°
2026-05-03 20:33 39.40502 -109.51532 39997 ft 534 kts 259°
2026-05-03 20:33 39.39160 -109.60984 40002 ft 534 kts 259°
2026-05-03 20:34 39.37827 -109.70426 40000 ft 535 kts 259°
2026-05-03 20:34 39.36493 -109.79909 40000 ft 536 kts 259°
2026-05-03 20:35 39.35167 -109.89377 40004 ft 533 kts 260°
2026-05-03 20:35 39.33853 -109.98788 40000 ft 532 kts 260°
2026-05-03 20:36 39.32607 -110.08168 39998 ft 528 kts 261°
2026-05-03 20:36 39.31431 -110.17495 39996 ft 530 kts 261°
2026-05-03 20:37 39.30261 -110.26905 39999 ft 526 kts 261°
2026-05-03 20:37 39.29709 -110.31405 39943 ft 490 kts 261°
2026-05-03 20:37 39.29195 -110.35566 39911 ft 460 kts 261°
2026-05-03 20:37 39.28704 -110.39541 39754 ft 436 kts 261°
2026-05-03 20:38 39.28255 -110.43290 39680 ft 411 kts 261°
2026-05-03 20:38 39.27847 -110.46873 39602 ft 386 kts 262°
2026-05-03 20:38 39.27479 -110.50182 39322 ft 370 kts 262°
2026-05-03 20:38 39.27149 -110.53526 38606 ft 382 kts 264°
2026-05-03 20:39 39.26864 -110.56994 38006 ft 394 kts 263°
2026-05-03 20:39 39.26265 -110.64125 38555 ft 401 kts 263°
2026-05-03 20:40 39.25706 -110.71471 38714 ft 421 kts 264°
2026-05-03 20:40 39.25138 -110.79176 38861 ft 440 kts 264°
2026-05-03 20:40 39.24846 -110.83106 39234 ft 442 kts 264°
2026-05-03 20:41 39.24551 -110.87049 39618 ft 442 kts 264°
2026-05-03 20:41 39.24252 -110.91021 39834 ft 447 kts 264°
2026-05-03 20:41 39.23947 -110.95042 39926 ft 455 kts 264°
2026-05-03 20:42 39.23265 -111.03334 40000 ft 472 kts 261°
2026-05-03 20:42 39.22173 -111.11785 40007 ft 489 kts 259°
2026-05-03 20:43 39.20923 -111.20549 39997 ft 504 kts 259°
2026-05-03 20:43 39.19612 -111.29563 40001 ft 518 kts 259°
2026-05-03 20:44 39.18191 -111.38767 40001 ft 529 kts 258°
2026-05-03 20:44 39.16701 -111.48166 39996 ft 539 kts 258°
2026-05-03 20:45 39.15203 -111.57580 39993 ft 538 kts 258°
2026-05-03 20:45 39.13700 -111.67030 39995 ft 533 kts 258°
2026-05-03 20:46 39.12222 -111.76354 39993 ft 530 kts 258°
2026-05-03 20:46 39.10753 -111.85635 39995 ft 529 kts 258°
2026-05-03 20:47 39.09226 -111.94917 39999 ft 530 kts 258°
2026-05-03 20:47 39.07644 -112.04213 40006 ft 532 kts 257°
2026-05-03 20:48 39.06064 -112.13465 39995 ft 536 kts 257°
2026-05-03 20:48 39.04468 -112.22815 40002 ft 532 kts 257°
2026-05-03 20:49 39.03145 -112.30583 39998 ft 529 kts 257°
2026-05-03 20:49 39.01582 -112.39774 39997 ft 529 kts 257°
2026-05-03 20:50 39.00016 -112.49006 39998 ft 528 kts 258°
2026-05-03 20:50 38.98454 -112.58236 40000 ft 528 kts 258°
2026-05-03 20:51 38.96896 -112.67465 40000 ft 528 kts 258°
2026-05-03 20:51 38.95344 -112.76681 39999 ft 528 kts 258°
2026-05-03 20:52 38.93794 -112.85900 39997 ft 528 kts 258°
2026-05-03 20:52 38.92245 -112.95140 39999 ft 530 kts 258°
2026-05-03 20:53 38.90704 -113.04352 40003 ft 530 kts 258°
2026-05-03 20:53 38.89157 -113.13622 39997 ft 528 kts 258°
2026-05-03 20:54 38.87631 -113.22786 40001 ft 528 kts 258°
2026-05-03 20:54 38.85329 -113.36649 40004 ft 529 kts 258°
2026-05-03 20:55 38.83807 -113.45833 40001 ft 529 kts 258°
2026-05-03 20:55 38.82278 -113.55087 39997 ft 531 kts 258°
2026-05-03 20:56 38.80748 -113.64365 40004 ft 531 kts 258°
2026-05-03 20:56 38.79220 -113.73650 40000 ft 531 kts 258°
2026-05-03 20:57 38.77696 -113.82931 40003 ft 532 kts 258°
2026-05-03 20:57 38.76173 -113.92226 39999 ft 532 kts 258°
2026-05-03 20:58 38.74663 -114.01466 40000 ft 530 kts 258°
2026-05-03 20:58 38.73163 -114.10657 40002 ft 530 kts 258°
2026-05-03 20:59 38.71655 -114.19921 39999 ft 534 kts 258°
2026-05-03 20:59 38.70147 -114.29206 40002 ft 533 kts 258°
2026-05-03 21:00 38.68895 -114.36928 40001 ft 531 kts 258°
2026-05-03 21:00 38.67152 -114.47699 40000 ft 531 kts 258°
2026-05-03 21:01 38.65655 -114.56963 40000 ft 531 kts 258°
2026-05-03 21:01 38.64166 -114.66208 40000 ft 531 kts 258°
2026-05-03 21:02 38.62668 -114.75520 40002 ft 535 kts 258°
2026-05-03 21:02 38.61179 -114.84803 40003 ft 532 kts 258°
2026-05-03 21:03 38.59693 -114.94083 39996 ft 533 kts 258°
2026-05-03 21:03 38.58209 -115.03304 40001 ft 530 kts 257°
2026-05-03 21:04 38.56398 -115.12478 40001 ft 529 kts 255°
2026-05-03 21:04 38.54469 -115.21511 40002 ft 530 kts 255°
2026-05-03 21:05 38.52505 -115.30594 39999 ft 532 kts 255°
2026-05-03 21:05 38.50559 -115.39748 39999 ft 535 kts 255°
2026-05-03 21:06 38.49616 -115.44347 39863 ft 537 kts 255°
2026-05-03 21:06 38.48679 -115.48957 39401 ft 536 kts 255°
2026-05-03 21:06 38.47748 -115.53558 38963 ft 533 kts 255°
2026-05-03 21:06 38.46885 -115.58139 38635 ft 530 kts 257°
2026-05-03 21:07 38.45366 -115.67275 38439 ft 529 kts 258°
2026-05-03 21:07 38.44619 -115.71941 38322 ft 529 kts 258°
2026-05-03 21:07 38.43899 -115.76476 38204 ft 529 kts 258°
2026-05-03 21:08 38.43172 -115.81080 38101 ft 529 kts 258°
2026-05-03 21:08 38.42446 -115.85685 37978 ft 529 kts 258°
2026-05-03 21:08 38.41722 -115.90285 37860 ft 530 kts 258°
2026-05-03 21:08 38.40995 -115.94912 37753 ft 531 kts 258°
2026-05-03 21:09 38.40271 -115.99523 37641 ft 531 kts 258°
2026-05-03 21:09 38.39545 -116.04150 37528 ft 531 kts 259°
2026-05-03 21:09 38.38820 -116.08776 37417 ft 532 kts 259°
2026-05-03 21:09 38.38066 -116.13397 37299 ft 532 kts 257°
2026-05-03 21:10 38.37132 -116.17890 37179 ft 533 kts 254°
2026-05-03 21:10 38.36089 -116.22428 37078 ft 530 kts 253°
2026-05-03 21:10 38.35020 -116.26921 36966 ft 530 kts 253°
2026-05-03 21:10 38.33937 -116.31413 36854 ft 530 kts 253°
2026-05-03 21:11 38.32849 -116.35902 36737 ft 531 kts 253°
2026-05-03 21:11 38.31753 -116.40409 36625 ft 533 kts 253°
2026-05-03 21:11 38.30652 -116.44935 36512 ft 535 kts 253°
2026-05-03 21:11 38.29584 -116.49417 36403 ft 535 kts 253°
2026-05-03 21:12 38.28532 -116.53943 36293 ft 532 kts 253°
2026-05-03 21:12 38.27482 -116.58511 36175 ft 532 kts 253°
2026-05-03 21:12 38.26461 -116.62972 36068 ft 532 kts 253°
2026-05-03 21:12 38.25427 -116.67500 35951 ft 532 kts 254°
2026-05-03 21:13 38.24396 -116.72016 35835 ft 532 kts 254°
2026-05-03 21:13 38.23364 -116.76549 35726 ft 533 kts 254°
2026-05-03 21:13 38.22333 -116.81074 35611 ft 534 kts 254°
2026-05-03 21:13 38.21300 -116.85615 35578 ft 534 kts 254°
2026-05-03 21:14 38.19266 -116.94558 35535 ft 522 kts 254°
2026-05-03 21:14 38.17225 -117.03542 35537 ft 533 kts 254°
2026-05-03 21:15 38.15173 -117.12586 35516 ft 532 kts 254°
2026-05-03 21:15 38.13119 -117.21643 35478 ft 533 kts 254°
2026-05-03 21:16 38.11084 -117.30628 35460 ft 531 kts 254°
2026-05-03 21:16 38.09046 -117.39635 35433 ft 530 kts 254°
2026-05-03 21:17 38.07352 -117.47128 35408 ft 531 kts 254°
2026-05-03 21:17 38.04974 -117.57657 35382 ft 530 kts 254°
2026-05-03 21:18 38.02945 -117.66641 35362 ft 530 kts 254°
2026-05-03 21:18 38.00917 -117.75641 35327 ft 530 kts 254°
2026-05-03 21:19 37.98888 -117.84646 35307 ft 531 kts 254°
2026-05-03 21:19 37.96873 -117.93600 35291 ft 532 kts 254°
2026-05-03 21:20 37.94849 -118.02599 35273 ft 530 kts 254°
2026-05-03 21:20 37.92856 -118.11620 35224 ft 531 kts 258°
2026-05-03 21:21 37.92500 -118.16294 35211 ft 531 kts 270°
2026-05-03 21:21 37.92597 -118.20966 35163 ft 532 kts 272°
2026-05-03 21:21 37.92799 -118.25639 34998 ft 532 kts 274°
2026-05-03 21:21 37.93043 -118.30323 34835 ft 532 kts 274°
2026-05-03 21:22 37.93302 -118.34947 34682 ft 530 kts 274°
2026-05-03 21:22 37.93483 -118.39575 34502 ft 525 kts 268°
2026-05-03 21:22 37.93215 -118.44188 34349 ft 522 kts 264°
2026-05-03 21:22 37.92807 -118.48746 34192 ft 520 kts 263°
2026-05-03 21:23 37.92352 -118.53297 34081 ft 520 kts 262°
2026-05-03 21:23 37.91880 -118.57839 34045 ft 522 kts 262°
2026-05-03 21:23 37.90913 -118.66963 34012 ft 522 kts 262°
2026-05-03 21:24 37.89939 -118.76029 34003 ft 523 kts 262°
2026-05-03 21:24 37.88876 -118.85164 34002 ft 526 kts 261°
2026-05-03 21:25 37.87779 -118.94331 33995 ft 526 kts 261°
2026-05-03 21:25 37.86681 -119.03473 34004 ft 525 kts 261°
2026-05-03 21:26 37.85586 -119.12598 34000 ft 523 kts 261°
2026-05-03 21:26 37.84487 -119.21775 34003 ft 532 kts 261°
2026-05-03 21:27 37.83374 -119.31084 33808 ft 536 kts 261°
2026-05-03 21:27 37.82817 -119.35749 33323 ft 537 kts 261°
2026-05-03 21:27 37.82260 -119.40415 32748 ft 536 kts 261°
2026-05-03 21:28 37.81706 -119.45061 32176 ft 534 kts 261°
2026-05-03 21:28 37.81153 -119.49709 31611 ft 531 kts 261°
2026-05-03 21:28 37.80610 -119.54260 31051 ft 530 kts 261°
2026-05-03 21:28 37.80055 -119.58926 30470 ft 532 kts 261°
2026-05-03 21:29 37.79513 -119.63502 29912 ft 534 kts 261°
2026-05-03 21:29 37.78961 -119.68146 29346 ft 535 kts 261°
2026-05-03 21:29 37.78409 -119.72798 28762 ft 536 kts 261°
2026-05-03 21:29 37.77856 -119.77460 28192 ft 531 kts 261°
2026-05-03 21:30 37.77314 -119.82034 27615 ft 523 kts 261°
2026-05-03 21:30 37.76780 -119.86558 27269 ft 516 kts 261°
2026-05-03 21:30 37.76251 -119.91030 27127 ft 513 kts 261°
2026-05-03 21:30 37.75723 -119.95500 27071 ft 515 kts 261°
2026-05-03 21:31 37.75195 -119.99976 27038 ft 514 kts 262°
2026-05-03 21:31 37.74669 -120.04432 27020 ft 511 kts 261°
2026-05-03 21:31 37.74148 -120.08860 27007 ft 511 kts 261°
2026-05-03 21:31 37.73624 -120.13307 27006 ft 513 kts 261°
2026-05-03 21:32 37.73099 -120.17766 27006 ft 513 kts 262°
2026-05-03 21:32 37.72575 -120.22228 27005 ft 510 kts 262°
2026-05-03 21:32 37.72060 -120.26606 27004 ft 509 kts 262°
2026-05-03 21:32 37.71543 -120.31021 27004 ft 510 kts 262°
2026-05-03 21:33 37.71024 -120.35443 27002 ft 509 kts 262°
2026-05-03 21:33 37.70506 -120.39864 27000 ft 507 kts 262°
2026-05-03 21:33 37.69990 -120.44275 27000 ft 507 kts 262°
2026-05-03 21:33 37.69475 -120.48670 27002 ft 507 kts 262°
2026-05-03 21:34 37.68959 -120.53087 27000 ft 507 kts 262°
2026-05-03 21:34 37.68445 -120.57481 26997 ft 506 kts 262°
2026-05-03 21:34 37.67931 -120.61890 27000 ft 506 kts 262°
2026-05-03 21:34 37.67423 -120.66227 26999 ft 506 kts 262°
2026-05-03 21:35 37.66912 -120.70624 27000 ft 507 kts 262°
2026-05-03 21:35 37.66400 -120.75024 26901 ft 508 kts 262°
2026-05-03 21:35 37.65892 -120.79385 26401 ft 487 kts 262°
2026-05-03 21:35 37.65418 -120.83464 25929 ft 450 kts 262°
2026-05-03 21:36 37.64948 -120.87256 25457 ft 430 kts 260°
2026-05-03 21:36 37.64409 -120.90944 25001 ft 422 kts 258°
2026-05-03 21:36 37.63815 -120.94462 24550 ft 397 kts 257°
2026-05-03 21:36 37.63213 -120.97775 24084 ft 377 kts 256°
2026-05-03 21:37 37.62812 -120.99868 23774 ft 365 kts 257°
2026-05-03 21:37 37.62272 -121.02946 23324 ft 355 kts 258°
2026-05-03 21:37 37.61770 -121.05974 22882 ft 349 kts 258°
2026-05-03 21:37 37.61287 -121.08973 22449 ft 347 kts 259°
2026-05-03 21:38 37.60854 -121.11948 22022 ft 345 kts 260°
2026-05-03 21:38 37.60464 -121.14927 21585 ft 343 kts 261°
2026-05-03 21:38 37.60127 -121.17891 21140 ft 340 kts 262°
2026-05-03 21:38 37.59818 -121.20826 20704 ft 337 kts 263°
2026-05-03 21:39 37.59538 -121.23758 20260 ft 335 kts 263°
2026-05-03 21:39 37.59271 -121.26673 19817 ft 333 kts 263°
2026-05-03 21:39 37.58994 -121.29556 19363 ft 329 kts 263°
2026-05-03 21:39 37.58721 -121.32308 18893 ft 313 kts 263°
2026-05-03 21:40 37.58452 -121.34986 18489 ft 296 kts 263°
2026-05-03 21:40 37.58201 -121.37478 18036 ft 284 kts 263°
2026-05-03 21:40 37.57934 -121.40129 17637 ft 327 kts 263°
2026-05-03 21:40 37.57644 -121.43006 17231 ft 327 kts 263°
2026-05-03 21:41 37.57360 -121.45812 16781 ft 321 kts 263°
2026-05-03 21:41 37.57081 -121.48587 16324 ft 317 kts 263°
2026-05-03 21:41 37.56803 -121.51341 15867 ft 316 kts 263°
2026-05-03 21:41 37.56528 -121.54082 15418 ft 314 kts 263°
2026-05-03 21:42 37.56250 -121.56841 14977 ft 324 kts 262°
2026-05-03 21:42 37.55930 -121.59650 14534 ft 322 kts 261°
2026-05-03 21:42 37.55289 -121.62339 14068 ft 321 kts 246°
2026-05-03 21:42 37.54357 -121.64883 13632 ft 318 kts 245°
2026-05-03 21:43 37.53537 -121.67431 13180 ft 313 kts 250°
2026-05-03 21:43 37.52828 -121.70032 12724 ft 314 kts 251°
2026-05-03 21:43 37.52152 -121.72647 12282 ft 312 kts 252°
2026-05-03 21:43 37.51496 -121.75242 11821 ft 309 kts 252°
2026-05-03 21:44 37.50861 -121.77807 11371 ft 306 kts 253°
2026-05-03 21:44 37.50250 -121.80358 10911 ft 302 kts 253°
2026-05-03 21:44 37.49659 -121.82856 10469 ft 300 kts 253°
2026-05-03 21:44 37.49070 -121.85370 10018 ft 299 kts 253°
2026-05-03 21:45 37.48744 -121.87941 9542 ft 298 kts 269°
2026-05-03 21:45 37.48752 -121.90542 9099 ft 294 kts 271°
2026-05-03 21:45 37.48816 -121.93109 8658 ft 291 kts 272°
2026-05-03 21:45 37.48901 -121.95641 8199 ft 289 kts 272°
2026-05-03 21:46 37.49001 -121.98168 7753 ft 288 kts 273°
2026-05-03 21:46 37.49122 -122.00682 7304 ft 286 kts 274°
2026-05-03 21:46 37.49251 -122.03168 6847 ft 284 kts 274°
2026-05-03 21:46 37.49384 -122.05640 6396 ft 282 kts 274°
2026-05-03 21:47 37.49568 -122.08087 5932 ft 280 kts 280°
2026-05-03 21:47 37.50165 -122.10401 5491 ft 278 kts 294°
2026-05-03 21:47 37.51089 -122.12503 5038 ft 276 kts 302°
2026-05-03 21:47 37.52119 -122.14502 4594 ft 261 kts 303°
2026-05-03 21:48 37.53091 -122.16324 4247 ft 246 kts 304°
2026-05-03 21:48 37.53970 -122.18084 4094 ft 220 kts 298°
2026-05-03 21:48 37.54597 -122.19583 4447 ft 173 kts 297°
2026-05-03 21:48 37.55138 -122.20925 4225 ft 179 kts 296°
2026-05-03 21:49 37.55718 -122.22339 3938 ft 201 kts 297°
2026-05-03 21:49 37.56342 -122.23828 3521 ft 184 kts 297°
2026-05-03 21:49 37.56906 -122.25207 2776 ft 171 kts 296°
2026-05-03 21:49 37.57443 -122.26525 2241 ft 163 kts 297°
2026-05-03 21:50 37.57959 -122.27754 1707 ft 158 kts 297°
2026-05-03 21:50 37.58469 -122.28935 1367 ft 151 kts 299°
2026-05-03 21:50 37.59007 -122.30124 1089 ft 164 kts 299°
2026-05-03 21:50 37.59513 -122.31280 904 ft 155 kts 298°
2026-05-03 21:51 37.60004 -122.32441 679 ft 137 kts 297°
2026-05-03 21:51 37.60474 -122.33580 480 ft 149 kts 297°
2026-05-03 21:51 37.60909 -122.34641 248 ft 142 kts 297°
2026-05-03 21:51 37.61378 -122.35774 86 ft 138 kts 297°
2026-05-03 21:52 37.61770 -122.36706 27 ft 79 kts 298°
2026-05-03 21:52 37.61937 -122.37102 28 ft 42 kts 297°
2026-05-03 21:52 37.62064 -122.37409 27 ft 38 kts 297°
2026-05-03 21:52 37.62144 -122.37678 29 ft 23 kts 248°
2026-05-03 21:53 37.62095 -122.37751 30 ft 0 kts 227°
2026-05-03 21:53 37.62092 -122.37755 30 ft 10 kts 227°
2026-05-03 21:53 37.61968 -122.37930 31 ft 16 kts 230°
2026-05-03 21:54 37.61913 -122.38061 30 ft 22 kts 258°
2026-05-03 21:54 37.61964 -122.38202 31 ft 18 kts 297°
2026-05-03 21:54 37.62044 -122.38386 31 ft 16 kts 298°
2026-05-03 21:54 37.62066 -122.38441 29 ft 2 kts 290°
2026-05-03 21:55 37.62050 -122.38472 28 ft 3 kts 208°
2026-05-03 21:55 37.62010 -122.38462 28 ft 8 kts 169°
2026-05-03 21:55 37.61993 -122.38456 28 ft 0 kts 165°